Regional Weather Roundup
Issued by NWS

Home | Current Version | Previous Version | Text Only | Print | Product List | Glossary On
Versions: 1 2 3 4 5 6 7 8 9 10 11 12 13 14 15 16 17 18 19 20 21 22 23 24 25 26 27
000
ASUS46 KSEW 232310
RWRWA

WASHINGTON REGIONAL WEATHER ROUNDUP
NATIONAL WEATHER SERVICE SEATTLE WA
400 PM PDT TUE MAY 23 2017

NOTE:"FAIR" INDICATES FEW OR NO CLOUDS BELOW 12,000 FEET WITH NO
SIGNIFICANT WEATHER AND/OR OBSTRUCTIONS TO VISIBILITY.

WAZ507-509-555>559-240000-
SEATTLE, TACOMA, EVERETT, AND VICINITY

CITY           SKY/WX    TMP DP  RH WIND       PRES   REMARKS
EVERETT        SUNNY     63  54  72 N14G21    29.99F
BOEING FIELD   SUNNY     80  52  37 NE7       29.93F
RENTON         SUNNY     78  55  44 NW8       29.93F
SEATAC AIRPORT MOSUNNY   77  52  41 SW13      29.95F
JBLM-MCCHORD   SUNNY     80  51  36 W17       29.94F
PUYALLUP         N/A     81  46  30 SW8G16    29.96F
BREMERTON      SUNNY     76  54  46 VRB7      29.94F
JBLM-FT LEWIS  SUNNY     78  47  32 W6G17     29.99F
TACOMA NARROWS SUNNY     74  53  48 SW10      29.96F
$$

WAZ001-503-506-510-514-515-240000-
NORTH INTERIOR

CITY           SKY/WX    TMP DP  RH WIND       PRES   REMARKS
BELLINGHAM     SUNNY     67  54  63 S16G24    29.92S
FRIDAY HARBOR  LGT RAIN  72  52  49 W14G24    29.94S
EASTSOUND      SUNNY     72  52  49 SW12G20   29.93R
PORT ANGELES   MOSUNNY   57  52  83 NW28G40   30.03S
EDIZ HOOK      FAIR      57  50  79 NW32G41   30.02R
PORT TOWNSEND  FAIR      63  54  72 W14G32    30.00S
NAS WHIDBEY    MOSUNNY   61  49  64 W28G37    30.03R
ARLINGTON      MOSUNNY   66  50  55 NW16      30.02S
BURLINGTON     SUNNY     64  52  63 SW15G23   29.98S
$$

WAZ020-022-039-040-504-511-512-240000-
SOUTHWEST INTERIOR

CITY           SKY/WX    TMP DP  RH WIND       PRES   REMARKS
SHELTON        SUNNY     73  54  51 SW30G40   29.96R
OLYMPIA        SUNNY     74  53  48 W18G26    29.99S
CHEHALIS       FAIR      73  57  56 SW9G20    30.03S
KELSO          SUNNY     70  54  56 VRB5G16   30.05S
VANCOUVER      SUNNY     82  44  26 NW13G22   29.98S
SCAPPOOSE, OR  SUNNY     79  45  29 NW12G21   29.99F
PORTLAND, OR   MOSUNNY   80  45  28 NW18G24   29.98S
$$

WAZ021-516-517-240000-
WASHINGTON COAST

CITY           SKY/WX    TMP DP  RH WIND       PRES   REMARKS
FORKS          CLOUDY    56  51  84 W10G22    30.13F
HOQUIAM        CLOUDY    58  54  86 W17G30    30.11R
ASTORIA, OR    CLOUDY    57  52  83 NW14      30.15R HAZE
$$

WAZ019-023-024-040-567>569-240000-
CASCADE MOUNTAINS AND COLUMBIA GORGE

CITY           SKY/WX    TMP DP  RH WIND       PRES   REMARKS
STAMPEDE PASS  SUNNY     66  40  38 W14G23    30.02F
TROUTDALE, OR  SUNNY     82  45  27 NW17G25   29.96S
THE DALLES, OR SUNNY     93  43  17 NW18G28   29.83F
$$

WAZ026-027-041>044-520-521-240000-
EAST SLOPES

CITY           SKY/WX    TMP DP  RH WIND       PRES   REMARKS
OMAK           SUNNY     87  44  22 S16       29.72F
WENATCHEE      SUNNY     91  34  13 W17       29.77F
ELLENSBURG     SUNNY     86  46  24 NW21G31   29.83F
YAKIMA         MOSUNNY   94  47  20 SW5       29.79F HX  90
SUNNYSIDE ARPT CLEAR     89  53  29 E6        29.77F
$$

WAZ028-034-035-240000-
COLUMBIA BASIN

CITY           SKY/WX    TMP DP  RH WIND       PRES   REMARKS
EPHRATA        SUNNY     91  42  18 W18G26    29.77F
MOSES LAKE     SUNNY     91  44  19 SW13G24   29.78F
PASCO          SUNNY     94  46  19 SW15      29.78F HX  90
HERMISTON, OR  SUNNY     94  48  20 W14       29.80F HX  90
$$

WAZ036>038-240000-
NORTHEAST WASHINGTON

CITY           SKY/WX    TMP DP  RH WIND       PRES   REMARKS
SPOKANE GEIGER MOSUNNY   80  45  28 SW10G21   29.87F
SPOKANE FELTS  SUNNY     84  47  27 S14       29.85F
FAIRCHILD AFB  SUNNY     80  48  33 SW15      29.86F
COEURDALENE,ID SUNNY     82  49  31 W13       29.86F
DEER PARK      SUNNY     82  48  30 S16G23    29.84F
$$

WAZ029>033-240000-
SOUTHEAST WASHINGTON

CITY           SKY/WX    TMP DP  RH WIND       PRES   REMARKS
PULLMAN        SUNNY     79  49  34 W9        29.92F
LEWISTON, ID   SUNNY     87  43  21 VRB3      29.84F
WALLA WALLA    SUNNY     90  48  23 CALM      29.84F
PENDLETON, OR  SUNNY     86  52  30 N7        29.85F
$$




USA.gov is the U.S. government's official web portal to all federal, state and local government web resources and services.